Temperature
13 13 13 13 13 13 13 13 13 12 12 12 12 12 12 12 12 12 12 12 12 12 12 11 11 11 11 11 11 11 11 11 11 11 11 11 11 11 11 11 11 11 11
12 12 12 12 12 12 12 12 12 12 12 12 12 12 12 12 12 11 11 11 11 11 11 11 11 11 10 10 10 10 10 11 11 11 11 11 11 11 11 11 11 11 11
12 12 12 12 12 12 12 12 12 12 12 12 12 11 11 11 11 11 11 11 11 11 11 11 10 10 10 10 10 10 10 10 10 10 10 10 10 10 10 10 10 11 11
11 12 12 12 12 12 12 12 12 12 11 11 11 11 11 11 11 11 10 10 10 10 10 10 10 10 10 10 9 9 9 9 9 9 9 10 10 10 10 10 10 10 10
11 11 11 11 11 11 11 11 11 11 11 11 11 10 10 10 10 10 10 10 10 10 10 10 9 9 9 9 9 9 9 9 9 9 9 9 9 9 9 9 9 9 10
11 11 11 11 11 11 11 11 11 11 10 10 10 10 10 10 9 9 9 9 9 9 9 9 9 9 9 9 9 9 9 9 8 8 8 8 8 8 9 9 9 9 9
10 10 11 10 11 11 10 10 10 10 10 10 10 9 9 9 9 9 9 9 9 9 8 8 8 8 8 8 8 8 8 8 8 8 8 8 8 8 8 8 8 8 8
10 10 10 10 10 10 10 10 10 9 9 9 9 9 8 8 8 8 8 8 8 8 8 8 8 8 8 8 7 8 8 8 7 7 7 7 7 7 7 7 7 7 7
9 9 9 9 9 9 9 9 9 9 9 9 8 8 8 8 7 8 8 8 7 7 7 7 7 7 7 7 7 7 7 7 7 7 6 6 6 6 7 7 7 7 7
9 9 9 9 9 9 9 9 8 8 8 8 8 8 7 7 7 6 7 7 7 7 7 7 7 7 7 7 6 6 6 6 6 6 6 6 6 6 6 6 6 6 6
8 8 8 8 8 8 8 8 8 8 8 8 7 7 7 7 7 6 6 6 7 6 6 6 6 6 6 6 6 6 6 6 6 6 6 5 5 5 5 6 5 6 6
8 8 8 8 8 8 8 8 7 7 7 7 7 7 6 6 6 6 5 6 6 6 6 6 5 5 5 5 5 5 5 5 5 5 5 5 5 5 5 5 5 5 5
7 7 7 7 7 7 7 7 7 7 7 7 6 6 6 6 6 5 5 5 5 5 5 5 5 5 5 4 4 5 5 5 5 5 4 4 4 5 5 5 5 5 5
7 7 7 7 7 7 6 6 6 6 6 6 6 6 5 5 5 5 4 4 4 4 4 4 4 4 4 4 4 4 4 4 4 4 4 4 4 4 4 4 4 4 4
6 6 6 6 6 6 6 6 6 6 6 6 5 5 5 5 5 5 4 4 3 3 3 4 4 4 4 3 3 3 3 3 3 3 3 3 3 3 3 4 4 4 4
6 6 6 6 6 6 6 5 5 5 5 5 5 5 5 5 4 4 4 4 3 3 2 3 3 3 3 3 3 3 3 3 3 3 3 3 3 3 3 3 3 3 3
5 5 5 5 5 5 5 5 5 5 5 5 5 4 4 4 4 4 3 3 3 2 2 2 3 2 2 2 2 2 2 2 2 2 2 2 2 2 2 2 2 2 2
5 5 5 5 5 5 5 5 5 4 4 4 4 4 4 3 3 3 3 3 2 2 2 2 2 2 2 2 2 2 2 2 2 2 2 2 2 2 2 2 2 2 2
5 5 4 4 4 4 4 4 4 4 4 4 4 3 3 3 3 3 2 2 2 2 1 1 2 2 2 1 1 1 1 1 1 1 1 1 1 1 1 1 1 1 1
4 4 4 4 4 4 4 4 4 4 3 3 3 3 3 2 2 2 2 2 1 1 1 1 1 1 1 1 0 0 1 1 1 1 1 1 1 1 1 1 1 1 1
4 4 4 4 4 4 4 3 3 3 3 3 3 2 2 2 2 1 1 1 1 1 0 0 0 0 0 -0 -0 -0 -1 -0 0 0 0 1 0 0 0 0 0 1 1
3 3 3 3 3 3 3 3 3 3 2 2 2 2 2 1 1 1 1 1 0 0 -0 -0 -0 -0 -0 -1 -1 -1 -1 -1 -1 -1 -0 0 -0 -0 -0 -0 0 0 -0
3 3 3 3 3 3 3 2 2 2 2 2 2 1 1 1 1 1 0 0 -0 -0 -1 -1 -1 -1 -1 -1 -2 -2 -2 -2 -2 -2 -1 -0 -0 -0 -0 -0 -0 -1 -1
2 2 2 2 2 2 2 2 2 2 2 1 1 1 1 0 0 -0 -0 -0 -1 -1 -1 -1 -1 -1 -2 -2 -2 -2 -2 -2 -2 -2 -2 -2 -1 -1 -1 -1 -1 -1 -1
2 2 2 2 2 2 2 1 1 1 1 1 1 1 0 0 -0 -1 -1 -1 -1 -1 -1 -1 -2 -2 -2 -2 -2 -3 -3 -3 -3 -2 -2 -3 -2 -2 -1 -1 -1 -1 -2
1 1 1 1 1 1 1 1 1 1 1 1 1 0 -0 -0 -1 -1 -1 -1 -1 -1 -1 -2 -2 -2 -2 -2 -2 -3 -3 -4 -4 -4 -3 -4 -3 -4 -3 -2 -2 -2 -2
Wind_Speed
2 2 2 2 2 2 2 2 2 2 3 3 3 3 2 2 2 2 2 2 2 2 2 3 4 4 4 5 4 4 5 5 6 6 6 6 7 8 8 8 9 9 9
3 2 2 2 2 2 2 2 1 1 1 2 2 2 2 2 2 3 2 2 3 3 3 3 4 4 5 5 5 5 5 6 7 7 8 8 8 9 9 9 9 10 10
3 3 2 1 2 2 2 2 3 2 1 2 2 2 2 2 2 2 2 2 3 3 4 4 5 5 6 6 6 6 6 6 7 8 8 9 9 10 10 11 11 10 10
4 3 2 1 2 2 2 1 1 2 1 1 1 1 1 1 2 2 3 3 3 4 4 5 5 6 6 7 7 7 7 7 8 8 9 9 10 10 11 11 11 11 11
4 4 2 1 2 2 2 1 1 1 1 1 1 1 1 1 0 2 3 3 4 4 4 4 5 6 7 8 8 8 8 8 8 9 9 9 10 11 11 11 11 11 11
4 3 2 2 3 2 2 1 2 2 1 1 1 1 1 1 1 1 1 3 3 3 4 4 4 4 6 7 8 9 9 9 9 9 9 10 10 11 11 11 12 12 11
3 3 2 2 2 1 1 1 1 1 2 2 2 2 3 2 1 1 1 2 2 3 3 3 3 4 4 6 8 9 9 9 10 10 10 10 11 12 11 11 11 12 11
2 2 2 1 1 1 2 1 1 1 1 2 1 1 1 2 2 2 1 1 1 2 2 3 2 3 3 4 6 8 9 9 10 11 11 11 12 13 13 12 11 11 12
2 2 2 1 1 1 1 0 1 2 1 0 1 2 1 2 2 2 1 1 1 1 1 2 2 2 3 4 5 7 8 9 10 11 12 13 13 13 14 14 13 12 12
2 2 2 2 2 1 1 0 0 1 2 1 0 0 1 2 1 2 2 2 2 2 2 2 2 3 3 4 5 7 8 9 10 11 12 13 14 14 14 15 14 14 13
1 1 1 2 2 1 1 1 1 0 1 2 2 1 1 0 1 2 3 3 3 3 3 2 2 3 3 3 4 6 8 9 11 12 13 13 13 14 15 14 15 14 14
0 0 1 1 1 1 0 0 0 0 1 1 1 1 2 1 1 2 3 4 4 4 3 3 2 2 3 4 5 7 8 10 11 12 13 13 13 14 14 14 14 14 14
1 2 1 1 1 1 1 1 1 1 1 2 2 2 2 2 2 2 2 3 4 3 3 2 2 2 3 4 6 8 8 10 11 12 13 13 14 14 14 14 14 14 14
2 2 2 2 2 1 1 1 1 1 1 2 2 2 2 2 2 2 2 2 3 3 3 4 2 2 3 5 7 8 8 10 12 12 13 13 14 14 15 14 14 14 14
2 2 2 2 2 2 2 1 1 2 2 2 3 3 2 2 2 2 2 2 3 5 5 4 2 2 4 5 7 7 8 11 12 12 13 14 14 14 14 14 14 14 14
2 2 2 2 2 2 2 2 2 3 3 3 3 3 3 3 2 2 2 2 3 4 5 3 3 4 4 6 8 8 9 11 12 13 14 14 13 14 14 14 14 14 14
2 3 3 2 3 3 3 3 4 3 4 4 3 3 4 3 3 3 2 2 3 3 6 6 4 3 3 4 6 8 9 9 10 13 14 14 14 14 14 14 14 14 14
3 3 3 3 3 3 3 4 4 4 5 5 4 4 5 3 4 3 3 3 4 4 4 7 5 4 4 4 5 6 7 8 9 12 13 14 14 13 13 13 14 14 13
3 3 3 3 4 4 4 4 5 5 5 5 5 5 5 4 5 4 4 4 4 4 4 5 6 4 4 4 4 5 5 6 8 11 12 13 13 13 13 13 13 12 11
3 3 3 4 4 4 4 4 4 5 5 5 5 5 5 6 6 6 5 5 4 4 4 4 5 5 4 4 3 4 5 4 6 8 9 11 13 13 12 12 11 11 11
4 3 3 4 4 4 4 5 5 5 5 5 5 5 5 6 7 6 5 5 5 4 4 4 5 5 4 4 4 3 5 6 6 4 5 6 7 7 8 9 10 10 11
3 3 3 4 4 5 7 8 6 5 5 5 5 5 5 6 8 9 10 9 8 6 5 5 5 6 6 5 4 4 4 5 6 3 5 7 5 5 5 7 10 11 10
3 3 4 4 5 7 9 9 9 5 5 5 5 5 5 5 6 5 8 10 10 11 10 6 7 8 6 5 5 5 5 5 7 5 5 7 5 5 6 9 11 10 10
3 4 5 5 5 7 9 9 9 5 5 5 6 6 6 6 6 5 5 6 6 7 9 7 7 8 6 5 5 5 5 5 6 5 3 5 5 5 6 7 10 9 10
4 4 4 5 5 7 8 9 8 4 4 5 5 5 6 6 9 9 6 6 7 7 9 11 11 10 10 9 6 3 3 4 6 5 2 2 3 5 5 4 6 8 9
5 4 4 4 5 6 8 9 7 3 4 4 4 5 8 8 10 10 6 6 8 7 5 5 6 7 6 7 7 5 4 4 4 4 2 2 3 3 4 3 3 5 7
Wind_Direction
105 82 75 59 45 45 41 25 17 24 27 25 35 53 37 30 39 38 33 38 30 19 4 350 346 339 332 326 325 321 318 317 315 315 313 308 305 301 297 294 284 276 273
123 114 87 65 34 21 21 34 36 46 27 37 33 37 39 33 45 49 44 41 41 36 28 15 3 350 344 340 338 336 331 327 324 321 318 313 307 306 301 296 296 283 276
119 118 99 55 7 9 21 37 35 44 49 43 17 17 38 38 49 50 54 59 50 45 44 38 30 23 13 2 352 346 340 337 337 334 328 321 315 308 306 300 294 293 286
107 104 96 49 7 25 35 50 44 50 35 24 3 342 11 33 40 63 74 74 68 59 49 46 41 31 21 12 3 357 353 349 344 339 334 330 325 319 312 308 300 291 287
96 97 94 57 44 48 33 41 55 55 29 1 340 350 342 4 30 79 78 78 76 70 59 48 39 30 21 11 360 354 351 349 346 339 332 328 324 318 314 311 306 297 291
80 87 75 48 54 61 36 50 55 40 36 350 359 10 345 347 41 79 91 75 67 64 59 51 39 30 24 13 4 356 350 347 344 339 335 333 329 324 317 310 310 304 298
77 83 73 46 55 70 52 64 77 56 29 19 41 11 353 5 29 46 78 75 58 50 48 44 40 35 18 9 1 356 353 350 345 340 337 335 334 332 324 318 319 318 309
67 83 81 57 54 71 43 58 94 103 35 41 75 84 351 335 344 352 11 78 53 29 26 13 23 27 10 359 347 351 351 346 342 338 336 335 334 331 329 324 323 320 316
69 84 95 94 78 96 83 45 125 141 173 350 83 138 160 238 295 309 307 339 347 339 329 336 341 338 341 340 333 339 343 340 335 332 330 330 330 329 329 327 321 320 318
85 82 85 103 100 87 89 13 85 171 164 200 269 321 200 180 188 289 303 311 314 298 281 297 300 302 313 326 327 335 338 336 331 327 325 325 325 325 325 326 324 321 321
91 99 104 106 95 80 81 39 31 116 169 190 199 211 260 276 195 206 268 294 302 276 268 255 249 269 282 314 313 329 334 331 327 323 322 321 322 323 322 321 320 317 315
91 123 124 128 137 140 190 211 213 161 185 190 201 194 197 207 220 209 244 278 283 277 271 252 234 245 268 295 300 318 321 322 321 318 317 318 320 321 319 319 319 317 317
218 227 204 193 192 200 204 190 188 240 208 199 208 217 216 229 223 224 241 272 284 289 279 267 243 244 280 288 291 306 308 313 316 315 314 315 317 319 317 316 317 317 317
225 214 203 208 212 212 216 191 209 241 220 216 228 226 229 243 233 225 225 253 288 291 276 269 270 249 289 288 294 303 303 307 311 311 311 313 314 314 313 313 314 316 315
220 200 193 212 219 214 210 204 223 236 216 224 229 231 240 249 242 237 222 218 235 275 280 265 268 281 297 287 295 300 300 302 308 308 309 310 310 310 310 310 312 311 311
226 218 219 225 235 232 219 215 227 233 220 234 229 225 241 247 245 241 233 224 218 240 267 272 271 283 295 301 297 299 294 298 302 305 307 307 307 309 307 308 309 308 307
222 223 227 228 233 238 238 228 233 230 228 242 244 235 242 242 239 242 237 230 231 229 260 280 279 283 279 284 299 298 292 289 292 300 303 303 304 305 304 305 306 305 305
227 228 228 229 237 240 240 237 240 239 229 237 242 240 246 246 241 241 235 237 241 237 251 276 286 284 277 275 283 289 298 294 291 296 301 302 302 301 303 305 305 304 306
229 234 226 230 240 244 245 243 238 239 234 237 236 237 244 238 246 249 242 243 246 255 250 266 278 278 281 283 291 295 291 292 297 299 303 302 301 301 303 306 306 305 307
230 237 237 236 240 246 249 247 244 242 241 242 240 239 241 235 238 241 247 244 247 253 256 264 276 280 277 279 287 296 303 301 300 302 301 301 301 301 300 304 305 305 305
239 237 242 248 250 250 249 243 245 238 237 245 247 244 244 246 249 250 254 244 239 248 257 266 274 282 281 285 285 287 294 304 298 289 303 303 302 298 298 303 302 302 304
249 244 246 251 260 264 265 260 255 237 234 239 251 254 254 255 260 265 266 261 250 246 249 257 267 269 272 275 282 282 292 308 304 302 314 302 296 290 290 296 298 303 305
250 254 255 252 260 267 270 269 261 243 234 238 241 248 264 266 268 262 268 269 265 260 256 255 257 259 262 258 264 271 270 277 280 288 308 295 295 287 289 298 297 298 304
252 255 257 254 258 269 274 272 266 250 239 242 240 239 248 258 260 263 260 263 263 259 257 254 251 257 258 250 243 258 265 280 283 280 269 279 292 290 298 295 293 298 307
255 255 255 251 256 272 276 275 270 247 246 250 250 247 249 254 265 270 266 264 271 270 269 263 264 265 267 267 262 256 267 285 296 292 258 267 293 304 296 287 295 307 313
249 257 262 256 254 266 276 277 269 246 248 258 261 258 261 263 269 273 264 257 264 267 266 271 269 270 267 263 258 235 229 253 279 284 248 276 285 318 307 287 295 310 312
Height
1524 1525 1525 1526 1526 1526 1526 1526 1526 1526 1526 1526 1526 1526 1526 1526 1526 1525 1525 1525 1525 1525 1524 1524 1523 1523 1523 1522 1521 1520 1519 1519 1518 1517 1517 1516 1516 1515 1515 1515 1514 1514 1514
1523 1523 1523 1524 1524 1524 1524 1524 1524 1524 1524 1524 1524 1524 1524 1524 1524 1523 1523 1523 1523 1522 1522 1522 1521 1521 1520 1520 1519 1518 1517 1516 1515 1514 1513 1512 1512 1511 1511 1510 1510 1510 1510
1521 1521 1522 1522 1522 1522 1522 1522 1522 1522 1522 1522 1522 1522 1522 1522 1521 1521 1521 1521 1520 1520 1520 1519 1519 1518 1518 1517 1516 1515 1514 1513 1512 1511 1510 1509 1508 1507 1507 1506 1506 1506 1505
1518 1519 1520 1520 1520 1520 1520 1519 1519 1520 1520 1520 1520 1519 1519 1520 1519 1519 1519 1518 1518 1518 1517 1517 1516 1516 1515 1514 1514 1513 1511 1510 1508 1507 1506 1505 1504 1503 1502 1502 1501 1501 1501
1516 1517 1517 1517 1518 1518 1517 1517 1517 1517 1517 1517 1517 1517 1517 1517 1517 1517 1517 1516 1516 1516 1515 1515 1514 1513 1513 1512 1511 1510 1509 1507 1506 1504 1503 1502 1500 1499 1498 1497 1496 1496 1496
1514 1514 1515 1515 1515 1515 1515 1515 1515 1515 1515 1515 1515 1515 1515 1515 1515 1515 1515 1514 1514 1514 1513 1512 1512 1511 1510 1509 1508 1507 1506 1505 1503 1502 1500 1499 1497 1496 1494 1493 1492 1492 1491
1512 1512 1512 1512 1513 1513 1513 1513 1513 1512 1512 1513 1513 1512 1513 1513 1512 1512 1512 1512 1512 1511 1511 1510 1509 1508 1508 1507 1506 1504 1503 1502 1500 1499 1497 1496 1494 1492 1491 1490 1489 1488 1487
1510 1510 1510 1510 1510 1510 1510 1510 1510 1510 1510 1510 1511 1510 1510 1511 1510 1510 1510 1509 1509 1509 1508 1507 1507 1506 1505 1504 1503 1501 1500 1498 1497 1496 1494 1493 1491 1489 1487 1486 1485 1484 1483
1507 1507 1508 1508 1508 1508 1508 1508 1508 1507 1507 1508 1509 1509 1508 1507 1507 1506 1506 1506 1506 1506 1505 1505 1504 1503 1502 1501 1499 1498 1497 1495 1494 1493 1491 1489 1488 1486 1484 1483 1481 1480 1479
1505 1505 1505 1506 1505 1505 1505 1505 1505 1505 1505 1505 1505 1506 1506 1505 1505 1503 1503 1503 1503 1503 1502 1501 1500 1499 1498 1497 1496 1495 1493 1492 1490 1489 1487 1486 1484 1482 1480 1479 1477 1476 1474
1502 1502 1503 1503 1503 1503 1502 1503 1503 1503 1502 1502 1502 1503 1502 1502 1502 1501 1499 1499 1499 1499 1498 1497 1496 1496 1495 1494 1493 1491 1490 1488 1486 1485 1483 1481 1480 1478 1476 1474 1473 1471 1470
1500 1500 1500 1500 1500 1500 1500 1500 1500 1500 1500 1500 1499 1499 1499 1499 1498 1497 1496 1494 1494 1494 1494 1493 1492 1492 1491 1490 1489 1487 1486 1484 1482 1481 1479 1477 1475 1473 1471 1470 1468 1466 1465
1497 1497 1498 1498 1498 1497 1497 1497 1497 1497 1497 1497 1496 1496 1496 1495 1495 1495 1493 1491 1490 1489 1489 1489 1488 1488 1487 1486 1484 1483 1481 1480 1478 1476 1475 1473 1470 1469 1467 1465 1463 1462 1460
1494 1495 1495 1495 1495 1494 1494 1494 1493 1493 1493 1493 1493 1493 1492 1492 1492 1491 1490 1489 1486 1485 1484 1484 1484 1483 1483 1481 1480 1479 1477 1475 1474 1472 1470 1468 1466 1464 1462 1460 1458 1457 1455
1492 1492 1492 1492 1492 1491 1491 1490 1490 1490 1490 1489 1489 1489 1489 1488 1488 1487 1487 1486 1486 1482 1479 1479 1479 1478 1478 1477 1475 1474 1472 1471 1469 1467 1465 1463 1461 1459 1457 1455 1453 1452 1450
1489 1489 1489 1489 1488 1488 1488 1487 1487 1487 1486 1486 1485 1485 1485 1484 1484 1483 1483 1482 1481 1480 1477 1474 1474 1474 1473 1472 1471 1469 1468 1466 1464 1462 1460 1458 1456 1454 1452 1450 1448 1447 1445
1486 1486 1485 1485 1485 1485 1484 1483 1483 1482 1482 1481 1481 1481 1480 1480 1479 1478 1478 1477 1476 1475 1473 1470 1470 1469 1468 1467 1465 1464 1463 1461 1459 1457 1455 1453 1451 1448 1447 1445 1443 1441 1440
1482 1482 1482 1481 1481 1481 1480 1480 1479 1478 1478 1477 1477 1476 1476 1475 1474 1474 1473 1472 1471 1471 1469 1466 1465 1464 1463 1462 1460 1459 1458 1456 1454 1452 1450 1448 1446 1443 1441 1439 1438 1436 1435
1478 1478 1478 1477 1477 1477 1476 1475 1475 1474 1473 1473 1472 1471 1471 1470 1469 1468 1468 1467 1466 1466 1464 1462 1460 1459 1458 1457 1455 1454 1452 1451 1449 1447 1445 1442 1441 1438 1436 1434 1432 1431 1429
1474 1474 1473 1473 1473 1472 1472 1471 1470 1469 1468 1468 1467 1467 1466 1465 1464 1463 1463 1462 1461 1460 1459 1457 1455 1454 1453 1452 1450 1448 1446 1445 1444 1442 1439 1437 1436 1434 1431 1429 1427 1425 1424
1470 1470 1469 1469 1468 1468 1467 1466 1465 1464 1463 1463 1462 1461 1460 1459 1459 1458 1457 1457 1456 1455 1454 1452 1451 1449 1448 1446 1445 1444 1442 1440 1438 1436 1434 1432 1430 1428 1426 1424 1422 1420 1418
1466 1465 1465 1465 1464 1463 1462 1461 1461 1459 1458 1457 1457 1456 1455 1454 1453 1453 1452 1452 1451 1450 1448 1447 1446 1444 1443 1442 1441 1439 1437 1435 1432 1432 1429 1426 1425 1422 1421 1419 1417 1415 1413
1461 1461 1460 1460 1459 1459 1458 1457 1456 1454 1453 1452 1451 1450 1449 1449 1448 1447 1446 1446 1445 1444 1444 1443 1441 1439 1438 1437 1436 1434 1433 1431 1429 1427 1424 1420 1420 1417 1416 1414 1412 1411 1409
1457 1456 1456 1455 1455 1454 1453 1452 1451 1449 1448 1447 1446 1445 1444 1443 1442 1442 1441 1439 1438 1438 1438 1437 1436 1435 1434 1433 1432 1431 1429 1426 1424 1423 1421 1416 1414 1412 1411 1409 1407 1406 1404
1452 1452 1451 1450 1449 1449 1448 1447 1446 1444 1443 1442 1441 1440 1439 1438 1437 1436 1435 1434 1432 1432 1432 1431 1430 1429 1428 1427 1427 1425 1423 1421 1418 1417 1416 1413 1410 1407 1405 1404 1403 1401 1400
1448 1447 1446 1445 1444 1443 1443 1441 1440 1439 1437 1436 1436 1435 1434 1433 1432 1431 1430 1428 1427 1426 1425 1425 1424 1423 1423 1422 1421 1420 1419 1417 1414 1412 1410 1409 1407 1404 1401 1398 1398 1397 1395